Wind_Speed
10 11 12 12 12 11 11 11 11 10 9 9 9 10 10 9 8 8 9 9 8 7 6 5 4 4 4 2 2 4 5 5 7 8 9 10 9 10 10 10 8 6 5 4 3 4 5 5 6
8 10 10 10 11 10 11 11 10 10 9 7 8 10 10 10 10 9 9 10 11 9 9 8 7 6 6 6 4 3 3 4 4 5 6 8 8 8 8 8 7 6 5 5 3 2 2 2 2
9 9 10 10 10 11 11 11 11 10 10 9 8 9 9 10 11 10 8 8 11 12 11 11 11 10 9 9 9 7 6 6 5 5 5 6 7 7 7 7 6 5 4 3 3 3 3 3 4
9 10 9 10 10 10 11 12 13 13 13 12 11 10 9 9 10 10 9 7 8 10 12 13 13 13 13 12 11 11 10 9 7 6 7 7 8 8 8 8 8 7 6 5 5 5 5 6 7
11 11 11 10 11 11 12 13 13 13 14 14 14 13 11 11 11 9 8 7 6 7 9 12 14 15 16 15 15 14 13 13 11 10 10 10 9 9 9 9 9 9 9 8 8 8 8 9 9
14 14 14 14 13 12 12 13 14 15 15 14 14 14 14 14 13 12 10 7 6 6 7 8 11 14 16 18 18 18 17 17 16 16 14 14 13 12 12 12 12 12 11 10 10 11 11 11 11
18 19 19 19 19 17 15 16 16 16 17 17 16 16 16 15 14 14 13 12 10 9 9 8 9 10 13 15 18 19 20 20 20 20 19 18 18 17 17 16 16 15 15 14 15 15 16 15 15
22 22 21 22 22 22 21 20 19 18 19 20 20 19 19 17 15 14 15 14 14 14 13 12 11 11 11 12 14 17 19 21 22 23 23 23 23 22 21 20 20 20 19 19 20 21 21 21 20
25 24 23 25 24 24 24 24 22 21 22 21 24 24 21 19 18 17 17 17 17 16 15 16 15 14 14 14 15 16 18 19 21 23 25 25 26 25 25 24 24 24 24 24 25 25 25 25 25
27 25 24 27 27 26 26 26 25 24 24 24 26 26 24 21 21 22 22 22 22 22 20 21 20 19 18 18 19 19 20 21 21 23 24 26 26 28 28 28 28 27 27 27 28 28 28 29 29
28 26 27 28 31 29 27 27 27 27 25 26 26 28 29 26 25 26 28 27 27 26 25 26 26 24 23 22 22 22 23 23 24 25 25 26 27 28 30 31 32 32 31 31 31 31 31 32 32
29 27 28 27 31 31 30 27 28 29 26 29 31 32 33 32 29 30 31 32 32 31 31 32 30 28 27 27 26 26 26 26 26 26 26 28 29 29 30 31 32 33 32 33 33 33 33 34 33
33 30 28 27 29 31 32 29 33 27 27 31 34 33 33 31 29 29 30 33 35 35 35 36 34 33 31 30 30 30 29 30 30 28 27 29 30 30 30 31 31 31 32 32 32 33 33 33 34
38 36 32 30 30 33 35 32 35 27 35 33 33 35 34 31 29 27 27 28 31 35 36 38 37 36 34 33 33 33 33 34 34 32 30 29 30 31 32 33 32 32 32 31 31 31 31 32 33
43 42 36 31 34 38 43 41 33 33 39 36 34 35 34 33 31 30 29 29 30 33 35 37 38 37 35 34 34 35 37 37 36 35 33 31 30 32 34 35 35 34 33 32 32 32 32 33 33
47 47 43 34 36 41 48 49 34 36 41 41 38 37 37 36 35 34 34 34 34 34 35 36 36 36 35 35 36 38 38 38 37 36 36 34 33 33 36 37 36 35 33 32 33 33 36 37 37
47 51 52 45 35 42 50 50 39 37 40 42 41 40 41 40 39 37 38 39 38 36 36 36 36 36 38 38 38 38 38 37 36 37 37 37 37 36 37 38 37 37 35 34 35 36 38 40 41
50 52 53 50 40 44 52 52 47 43 42 37 35 34 37 39 38 38 42 43 43 41 38 38 40 40 40 39 37 36 35 35 36 39 40 40 41 40 38 38 38 37 36 35 35 37 40 41 42
52 53 54 51 47 50 52 52 50 44 39 33 32 34 32 31 30 33 38 41 44 46 43 41 41 41 41 40 38 38 37 36 39 43 43 44 43 42 39 38 38 38 37 35 36 38 40 40 40
52 54 55 53 52 55 55 53 52 47 41 35 31 30 31 31 31 32 35 37 39 42 45 45 44 43 43 43 41 39 37 37 39 41 41 43 42 39 37 40 41 39 37 37 38 39 39 39 39
49 49 51 54 55 55 55 54 53 46 39 36 35 36 35 32 32 31 33 37 39 41 44 44 45 45 45 45 44 43 41 40 39 37 39 41 42 42 44 44 41 39 39 40 40 39 39 39 39
51 46 48 50 54 57 54 56 53 50 46 41 39 38 37 33 31 31 33 37 39 40 39 38 40 41 42 43 44 44 44 44 43 43 43 42 42 43 43 42 41 41 42 41 40 41 41 42 41
52 54 53 53 56 59 61 59 55 57 58 55 49 45 45 46 47 44 40 40 42 42 42 40 40 41 40 41 43 45 46 46 47 47 47 46 46 45 45 45 44 44 43 41 42 44 45 45 46
51 55 59 59 60 64 63 61 56 59 61 62 60 59 59 58 58 58 53 45 42 43 43 43 44 43 42 40 40 43 45 46 47 47 48 48 48 46 45 44 43 44 43 44 45 48 50 51 50
53 54 59 64 68 69 66 68 62 62 61 63 63 64 66 65 63 59 56 52 47 46 48 49 47 45 44 44 44 42 44 46 47 46 44 46 48 48 46 47 45 46 46 47 48 50 53 53 52
59 59 60 63 65 67 68 72 68 64 61 61 64 66 65 64 63 60 57 53 50 46 46 51 51 51 49 47 46 46 45 44 46 45 43 44 46 46 47 47 48 49 50 49 50 52 53 53 53
64 63 59 59 62 65 67 70 69 65 62 60 63 65 60 57 58 64 61 52 41 42 44 44 46 50 52 52 47 44 47 46 45 47 49 49 50 49 47 49 52 53 52 51 52 54 54 55 55
72 69 69 69 71 74 74 70 67 57 58 60 61 61 59 55 55 58 58 51 49 51 51 51 54 53 51 53 53 51 51 51 50 52 55 56 57 58 58 59 60 59 56 53 53 54 54 56 57
74 73 71 70 68 70 71 70 66 60 58 60 63 64 64 59 54 53 52 55 57 56 55 53 54 54 56 58 61 61 61 59 56 57 60 64 66 68 69 67 64 61 58 55 54 54 55 58 59
73 71 69 68 69 68 68 65 60 58 61 63 67 67 67 67 65 62 63 64 63 62 59 57 55 56 60 61 62 64 64 60 60 65 67 69 70 69 67 68 66 64 61 60 61 60 58 59 60
Wind_Direction
342 347 353 357 357 357 354 355 0 360 355 345 340 340 340 332 315 296 288 286 291 299 307 307 305 318 327 310 166 122 112 114 115 123 132 133 131 128 128 131 136 139 143 151 195 219 225 230 244
348 355 1 4 5 7 9 12 12 6 356 351 357 360 357 352 339 315 291 275 274 279 287 293 289 282 281 286 286 238 205 187 163 150 145 142 145 144 145 138 138 141 144 146 166 217 236 256 265
358 3 3 3 9 14 12 14 16 8 359 356 4 7 6 3 360 348 324 289 272 269 273 278 280 279 275 270 265 261 250 238 219 204 187 174 172 166 162 156 156 154 154 163 180 210 230 261 274
357 358 357 353 355 1 2 1 3 3 352 349 355 357 354 351 357 358 354 335 297 278 268 266 267 271 272 272 268 260 256 259 258 251 239 225 215 210 205 196 195 194 199 210 227 239 249 262 269
340 342 341 336 337 342 345 346 345 347 343 341 343 346 351 339 334 343 348 346 330 303 281 271 266 264 265 268 269 268 265 263 263 264 265 260 250 239 237 236 237 237 238 242 247 254 261 265 268
325 327 328 325 327 329 330 329 329 332 333 335 333 332 338 337 331 325 327 328 322 312 298 282 273 266 263 262 264 266 267 266 263 262 262 260 256 253 254 254 254 256 258 262 266 270 272 274 276
311 314 316 316 317 316 318 316 318 322 319 318 318 317 321 325 328 326 320 315 308 301 296 289 279 269 264 262 262 263 264 264 264 263 262 260 257 255 253 254 255 254 256 260 265 272 276 277 276
304 305 305 305 305 304 304 303 303 306 301 300 299 299 304 306 307 308 309 308 304 299 295 290 281 273 267 265 263 263 263 263 262 261 259 259 257 256 257 259 260 260 259 260 263 267 270 272 271
300 301 299 296 296 294 296 294 293 295 288 284 283 289 295 296 293 289 287 289 291 292 293 291 284 277 273 270 268 266 264 263 263 262 260 259 259 257 255 256 258 260 261 262 262 264 267 269 270
296 299 294 293 292 291 293 292 290 290 284 274 275 283 289 284 281 277 273 274 278 281 283 281 280 278 276 274 272 271 269 266 264 263 262 261 261 260 258 260 262 264 263 263 263 264 265 265 265
296 296 291 290 289 291 290 288 288 287 283 275 274 277 278 273 267 267 270 272 273 276 277 275 274 274 274 274 273 272 271 268 265 263 264 265 262 260 259 259 262 262 262 262 263 264 263 263 263
297 296 291 291 291 294 291 288 284 285 284 277 275 277 280 281 279 271 267 269 272 274 271 269 270 270 269 268 270 272 271 269 267 265 264 264 263 262 262 262 262 263 263 264 265 265 265 264 263
297 295 294 293 293 293 290 289 284 292 286 278 280 281 279 281 284 280 275 270 269 269 267 268 270 268 267 265 266 268 268 268 268 269 269 266 264 264 265 266 265 265 265 266 266 265 265 264 264
296 294 294 296 295 290 283 278 286 298 285 286 286 285 284 282 285 289 284 278 271 267 266 267 268 268 267 266 266 265 267 266 265 267 269 269 266 263 262 261 262 262 263 263 263 264 266 266 266
289 289 291 296 291 286 283 282 293 293 285 283 280 281 282 282 284 288 288 285 279 272 267 265 266 268 270 270 267 264 262 263 264 265 269 272 269 266 263 260 260 260 262 264 267 269 271 273 271
287 288 288 283 282 286 285 286 288 285 284 282 281 281 283 285 284 284 283 282 277 272 269 267 267 268 270 270 266 261 259 261 263 265 269 273 271 269 265 262 260 259 261 264 267 270 272 274 274
287 285 283 282 284 284 282 284 285 280 282 285 288 290 288 286 283 281 275 271 270 269 268 267 266 267 269 268 267 265 263 262 262 263 267 271 271 269 266 262 261 259 259 262 266 269 270 271 271
281 280 282 285 287 279 278 281 284 285 288 294 295 291 288 285 283 277 272 268 268 269 269 269 269 271 271 269 266 264 264 264 262 262 264 266 269 269 268 265 262 259 260 262 266 268 268 268 269
281 282 283 286 286 281 280 283 286 286 289 295 295 293 292 288 284 279 274 271 269 268 271 274 275 274 272 270 266 264 265 266 266 265 265 266 267 267 266 263 258 256 258 262 265 266 267 268 270
281 282 283 284 282 282 285 286 286 288 291 294 293 292 293 290 283 278 274 272 271 270 271 274 273 272 269 266 264 266 268 271 273 271 267 264 264 263 259 254 252 255 259 263 265 265 267 272 274
279 280 282 282 282 282 285 285 286 288 290 289 290 291 293 293 288 283 277 276 273 272 273 273 270 267 265 264 264 265 267 270 271 268 264 261 260 256 252 253 254 256 260 264 266 267 268 270 273
278 278 278 281 283 283 279 280 282 288 291 287 284 287 288 286 283 286 285 283 285 283 280 278 272 266 265 264 262 261 262 266 269 267 263 262 261 261 260 258 257 259 264 267 269 270 271 273 275
278 277 278 279 279 279 279 281 285 290 291 290 288 290 291 290 289 286 283 280 283 284 282 278 272 266 261 261 264 264 263 262 265 266 265 263 261 261 259 260 261 262 265 268 272 275 277 277 278
275 274 274 275 277 277 280 283 279 280 282 286 290 295 297 294 291 291 292 286 279 277 278 276 273 270 265 259 259 263 265 264 263 262 262 262 262 262 263 263 263 264 268 273 275 278 279 278 277
273 274 274 274 277 280 280 277 272 275 279 283 288 292 293 291 288 288 290 288 285 279 276 273 269 267 264 260 260 260 263 265 267 268 266 264 263 261 258 258 259 262 266 270 273 276 278 279 279
277 278 278 278 278 278 276 273 270 274 277 280 284 287 287 287 287 286 284 285 285 280 273 271 268 265 263 264 267 266 263 262 264 266 267 266 264 262 262 262 263 264 266 269 272 275 276 277 277
278 278 279 280 277 275 272 275 276 275 277 278 280 282 287 285 282 279 277 278 274 269 264 260 259 265 267 265 261 261 261 257 257 259 261 263 264 265 267 269 269 268 269 268 269 271 273 274 276
280 281 281 280 282 281 280 276 274 274 271 273 275 276 275 273 273 273 273 271 270 270 265 257 256 255 256 256 253 253 250 250 254 258 258 257 259 262 267 269 270 271 272 272 270 271 273 274 276
281 279 278 280 279 278 280 281 280 278 275 273 271 269 269 272 273 271 269 270 268 265 262 254 255 260 257 252 250 252 251 249 255 262 261 260 262 264 267 268 271 272 272 270 269 272 274 276 278
280 280 280 282 282 281 280 280 283 278 275 272 271 271 270 268 267 267 267 272 272 268 261 253 250 258 258 252 248 250 250 249 253 258 260 258 259 262 265 268 270 272 272 272 271 271 271 273 275
Height
5872 5871 5870 5869 5868 5867 5865 5865 5864 5863 5863 5862 5861 5860 5859 5859 5858 5860 5859 5857 5858 5857 5857 5858 5859 5860 5860 5860 5860 5859 5860 5861 5860 5859 5860 5861 5861 5862 5863 5863 5865 5867 5869 5870 5871 5872 5872 5873 5874
5871 5870 5870 5869 5868 5866 5866 5865 5864 5863 5863 5862 5861 5860 5859 5857 5857 5856 5856 5856 5856 5856 5856 5857 5858 5858 5859 5859 5859 5859 5859 5860 5861 5860 5860 5860 5860 5860 5861 5862 5863 5865 5867 5868 5868 5870 5870 5871 5872
5871 5870 5870 5869 5868 5867 5867 5866 5865 5863 5863 5862 5861 5859 5858 5857 5856 5855 5854 5853 5854 5854 5855 5855 5856 5856 5857 5858 5858 5859 5859 5859 5860 5860 5859 5860 5860 5860 5861 5862 5863 5864 5865 5866 5866 5868 5869 5870 5871
5871 5871 5871 5871 5869 5869 5867 5866 5865 5864 5863 5862 5860 5859 5857 5857 5855 5854 5853 5852 5853 5853 5852 5853 5853 5854 5854 5855 5856 5856 5857 5858 5858 5858 5858 5859 5859 5860 5860 5861 5862 5862 5863 5864 5865 5867 5868 5869 5870
5871 5871 5871 5871 5870 5869 5868 5866 5865 5864 5863 5861 5860 5859 5857 5856 5854 5853 5852 5852 5851 5851 5850 5850 5851 5851 5852 5852 5853 5853 5854 5854 5855 5856 5857 5857 5857 5857 5859 5859 5859 5860 5861 5861 5863 5865 5865 5866 5867
5871 5870 5870 5870 5869 5868 5867 5866 5864 5863 5862 5861 5859 5858 5857 5855 5853 5852 5852 5851 5850 5850 5849 5848 5849 5849 5849 5849 5849 5850 5849 5850 5851 5852 5854 5854 5855 5855 5856 5857 5857 5858 5858 5859 5860 5861 5862 5863 5863
5869 5868 5868 5867 5867 5866 5865 5864 5863 5862 5860 5859 5858 5856 5855 5854 5852 5850 5850 5850 5849 5848 5847 5846 5846 5846 5846 5845 5846 5846 5846 5847 5846 5847 5848 5850 5851 5852 5853 5855 5856 5856 5856 5856 5857 5858 5859 5859 5860
5865 5865 5864 5863 5862 5862 5861 5860 5860 5860 5858 5856 5854 5853 5852 5852 5850 5849 5848 5847 5847 5847 5846 5845 5844 5844 5844 5843 5843 5843 5843 5843 5843 5843 5844 5845 5846 5848 5849 5850 5851 5851 5852 5852 5853 5854 5855 5856 5857
5860 5862 5860 5858 5857 5857 5856 5855 5855 5855 5853 5852 5849 5849 5850 5849 5847 5846 5845 5844 5843 5843 5843 5843 5842 5842 5842 5841 5840 5839 5839 5839 5839 5839 5839 5840 5841 5843 5844 5844 5845 5846 5847 5847 5849 5850 5850 5851 5852
5856 5857 5855 5853 5851 5851 5851 5850 5850 5850 5848 5846 5845 5845 5845 5844 5843 5841 5840 5839 5839 5839 5839 5838 5838 5838 5838 5838 5837 5836 5835 5834 5834 5834 5835 5835 5836 5837 5838 5839 5840 5841 5841 5842 5843 5844 5845 5846 5846
5852 5852 5850 5848 5844 5845 5846 5845 5844 5843 5843 5839 5840 5840 5838 5838 5837 5836 5835 5834 5834 5834 5834 5833 5832 5833 5833 5833 5833 5832 5832 5831 5829 5829 5830 5830 5831 5832 5833 5833 5835 5836 5836 5837 5837 5838 5838 5839 5839
5846 5846 5844 5843 5838 5837 5837 5838 5837 5836 5837 5833 5832 5832 5832 5831 5831 5830 5830 5828 5828 5828 5826 5825 5826 5826 5827 5827 5827 5827 5827 5826 5825 5824 5825 5825 5825 5826 5826 5827 5828 5829 5830 5831 5831 5831 5831 5831 5832
5840 5840 5839 5838 5834 5831 5829 5831 5828 5832 5830 5826 5825 5825 5825 5824 5824 5823 5822 5822 5821 5820 5818 5817 5817 5818 5819 5820 5820 5820 5820 5820 5820 5820 5820 5820 5820 5820 5820 5821 5821 5822 5822 5822 5822 5822 5823 5823 5823
5833 5833 5834 5833 5830 5826 5821 5823 5822 5828 5820 5820 5819 5818 5817 5818 5818 5817 5815 5814 5813 5811 5811 5809 5808 5808 5810 5811 5812 5813 5813 5813 5813 5814 5814 5814 5814 5814 5813 5814 5814 5814 5814 5815 5814 5814 5814 5814 5813
5824 5823 5826 5828 5824 5818 5812 5812 5820 5819 5812 5812 5812 5810 5809 5809 5810 5810 5809 5808 5806 5803 5801 5800 5799 5798 5800 5802 5803 5804 5804 5803 5805 5806 5806 5807 5807 5807 5806 5806 5806 5806 5807 5807 5806 5806 5805 5805 5804
5816 5813 5816 5822 5818 5811 5803 5800 5815 5812 5805 5804 5804 5804 5802 5802 5801 5801 5799 5798 5798 5796 5793 5791 5791 5791 5791 5792 5793 5793 5794 5794 5796 5797 5798 5798 5798 5798 5797 5797 5797 5798 5798 5798 5798 5797 5797 5796 5796
5808 5802 5801 5806 5814 5803 5792 5789 5801 5804 5799 5797 5798 5799 5796 5795 5795 5793 5789 5786 5785 5785 5785 5784 5783 5783 5783 5783 5783 5784 5785 5786 5787 5787 5789 5789 5789 5788 5788 5788 5790 5790 5790 5790 5790 5789 5788 5788 5787
5795 5790 5790 5793 5802 5796 5784 5781 5786 5790 5790 5791 5791 5790 5787 5785 5786 5784 5779 5776 5774 5774 5774 5775 5776 5776 5775 5774 5774 5775 5776 5777 5777 5778 5779 5778 5779 5779 5779 5780 5781 5782 5783 5783 5782 5781 5780 5779 5778
5785 5782 5779 5783 5786 5780 5776 5773 5776 5780 5781 5784 5783 5780 5778 5778 5776 5773 5770 5767 5765 5764 5765 5765 5766 5767 5767 5767 5767 5766 5767 5768 5768 5768 5768 5768 5768 5769 5769 5770 5771 5772 5773 5774 5774 5773 5772 5771 5770
5776 5774 5771 5771 5772 5767 5764 5761 5765 5770 5773 5772 5772 5771 5767 5766 5766 5763 5759 5757 5755 5755 5756 5757 5757 5757 5758 5758 5758 5758 5758 5758 5758 5758 5758 5758 5758 5758 5759 5760 5761 5762 5764 5765 5764 5764 5763 5763 5763
5767 5765 5763 5759 5759 5758 5754 5748 5750 5756 5764 5764 5762 5761 5760 5758 5754 5752 5750 5748 5747 5746 5746 5747 5747 5747 5746 5748 5750 5750 5749 5748 5748 5748 5746 5746 5746 5747 5749 5750 5751 5752 5753 5753 5753 5752 5752 5751 5751
5754 5755 5752 5751 5748 5744 5744 5736 5739 5746 5750 5751 5751 5751 5748 5748 5745 5744 5742 5740 5738 5738 5737 5738 5737 5736 5736 5736 5738 5739 5740 5739 5739 5737 5735 5735 5736 5738 5740 5741 5741 5742 5742 5742 5742 5741 5741 5741 5741
5745 5743 5741 5739 5737 5735 5729 5731 5734 5733 5732 5730 5733 5738 5739 5738 5736 5736 5734 5732 5730 5728 5728 5728 5727 5727 5725 5725 5726 5728 5729 5729 5728 5726 5725 5725 5725 5727 5729 5730 5731 5731 5731 5731 5730 5729 5729 5729 5729
5731 5728 5725 5723 5722 5724 5725 5726 5730 5726 5723 5719 5719 5720 5719 5717 5715 5716 5718 5720 5719 5718 5717 5717 5717 5717 5716 5714 5713 5714 5716 5716 5715 5714 5714 5714 5713 5714 5716 5717 5718 5719 5719 5719 5718 5716 5715 5715 5715
5716 5714 5710 5705 5705 5712 5714 5709 5718 5716 5718 5716 5714 5711 5706 5699 5695 5697 5699 5702 5703 5704 5704 5704 5703 5705 5705 5703 5701 5700 5701 5703 5703 5704 5703 5703 5703 5702 5701 5702 5703 5704 5704 5704 5704 5703 5702 5702 5702
5702 5699 5698 5690 5688 5690 5692 5690 5708 5709 5709 5709 5702 5694 5690 5685 5682 5682 5682 5683 5684 5687 5688 5689 5691 5691 5691 5691 5690 5690 5688 5689 5690 5691 5691 5692 5692 5692 5690 5689 5689 5690 5690 5689 5689 5689 5689 5688 5689
5686 5684 5682 5674 5666 5662 5669 5674 5684 5700 5700 5697 5687 5678 5672 5670 5668 5666 5667 5668 5667 5670 5673 5675 5676 5676 5675 5673 5673 5674 5675 5675 5675 5676 5677 5677 5677 5677 5677 5677 5677 5676 5676 5675 5674 5674 5674 5674 5674
5671 5667 5663 5656 5649 5642 5643 5653 5663 5679 5685 5678 5667 5657 5652 5651 5651 5652 5652 5652 5653 5653 5654 5654 5655 5656 5657 5656 5656 5655 5655 5657 5659 5660 5661 5661 5660 5660 5660 5660 5661 5660 5660 5660 5660 5660 5660 5660 5659
5654 5648 5644 5638 5633 5627 5622 5627 5646 5654 5656 5646 5637 5634 5636 5639 5639 5639 5638 5637 5636 5637 5639 5638 5638 5641 5640 5639 5639 5640 5640 5641 5643 5644 5644 5643 5642 5641 5641 5640 5642 5643 5643 5643 5643 5644 5644 5644 5643
5633 5629 5629 5623 5616 5611 5604 5607 5626 5627 5624 5620 5620 5620 5620 5620 5620 5620 5620 5620 5619 5621 5621 5621 5621 5620 5621 5621 5621 5623 5624 5624 5627 5628 5626 5623 5623 5622 5620 5620 5623 5625 5626 5626 5626 5625 5627 5627 5626